Weather Roundup
Issued by NWS

Home | Current Version | Previous Version | Graphics & Text | Print | Product List | Glossary Off
Versions: 1 2 3 4 5 6 7 8 9 10 11 12 13 14 15 16 17 18 19 20 21 22 23 24 25 26 27 28 29 30 31 32 33 34 35 36 37 38 39 40 41 42 43 44 45 46 47 48 49 50

000
NZUS93 KARX 222359
HRRWXR

CURRENT HOURLY OBSERVATIONS ACROSS
MUCH OF THE UPPER MISSISSIPPI VALLEY
NATIONAL WEATHER SERVICE LA CROSSE WI
600 PM CST WED FEB 22 2017


...SOUTHEAST MINNESOTA...


CITY           SKY/WX    TMP DP  RH WIND       PRES   REMARKS
ROCHESTER      CLEAR     50  46  86 W10       29.58R
ROCHESTER/MAYO FAIR      56  46  69 SW6       29.58R
WINONA         CLEAR     54  43  66 CALM      29.56F
AUSTIN         CLEAR     54  45  71 W3        29.59R
ALBERT LEA     CLEAR     55  46  71 CALM      29.59S
DODGE CENTER   CLEAR     50  45  81 W7        29.59R
PRESTON        CLEAR     51  44  76 W5        29.58F
OWATONNA       CLEAR     52  46  82 W7        29.58S
FARIBAULT      PTCLDY    54  48  82 W9        29.59R
$$

...ELSEWHERE IN MINNESOTA...


CITY           SKY/WX    TMP DP  RH WIND       PRES   REMARKS
MINNEAPOLIS    MOCLDY    50  43  77 NW9       29.59R
INTNL FALLS    CLOUDY    32  25  75 N8        29.75R WCI  25
DULUTH         LGT RAIN  37  36  96 SW5       29.64R WCI  33
RED WING       CLEAR     50  39  66 CALM      29.56R
REDWOOD FALLS  CLOUDY    45  38  76 NW18G29   29.67R
MANKATO          N/A     51  45  79 NW15      29.63R
WORTHINGTON    CLOUDY    47  43  86 N15       29.71R
FAIRMONT       CLEAR     50  45  83 NW25      29.65R
$$

...SOUTHWEST WISCONSIN...


CITY           SKY/WX    TMP DP  RH WIND       PRES   REMARKS
LA CROSSE      CLEAR     54  42  64 W7        29.56R
PRAIRIE DU CHI CLEAR     63  40  43 W8        29.54R
BOSCOBEL       CLEAR     65  41  41 W7        29.54R
LONE ROCK      NOT AVBL
PLATTEVILLE    PTCLDY    63  50  64 S10       29.55R
FORT MC COY    CLEAR     57  41  53 W3        29.55S
MAUSTON-NEW LI CLEAR     56  42  59 CALM      29.53S
VIROQUA        FAIR      55  40  57 W8        29.56R
WIS DELLS      PTCLDY    63  44  49 NW3       29.53R
$$

...ELSEWHERE IN WISCONSIN...


CITY           SKY/WX    TMP DP  RH WIND       PRES   REMARKS
MILWAUKEE      PTCLDY    64  49  57 S14G23    29.53F
MADISON        PTCLDY    64  50  60 S9        29.54R
GREEN BAY      CLOUDY    55  47  74 NE6       29.56R
EAU CLAIRE     NOT AVBL
BLACK RVR FLS  FAIR      50  36  59 NE3       29.55S
MEDFORD        CLOUDY    47  42  81 SW5       29.56R
WAUSAU         CLOUDY    50  38  63 NW5       29.54R
WIS RAPIDS     PTCLDY    50  37  61 CALM      29.54F
MARSHFIELD     MOCLDY    48  41  76 NW7       29.54R
RICE LAKE      MOCLDY    46  43  88 CALM      29.57S
$$

...NORTHEAST IOWA...


CITY           SKY/WX    TMP DP  RH WIND       PRES   REMARKS
WATERLOO       CLEAR     58  45  62 NW8       29.59R
DUBUQUE        CLEAR     62  44  51 W10       29.57R
DECORAH        CLEAR     55  45  67 VRB7      29.57R
MASON CITY     CLEAR     52  44  74 W8        29.62R
CHARLES CITY   CLEAR     54  50  87 W8        29.60R
OELWEIN        CLEAR     55  48  76 NW10      29.60R
$$

...ELSEWHERE IN IOWA...


CITY           SKY/WX    TMP DP  RH WIND       PRES   REMARKS
DES MOINES     PTCLDY    67  42  40 NW10      29.64R
IOWA CITY      CLEAR     68  39  34 W15       29.59R
FORT DODGE     CLEAR     59  43  55 NW9       29.64R
MARSHALLTOWN   CLEAR     58  45  62 W7        29.60R
CEDAR RAPIDS   CLEAR     60  41  49 W13       29.58R
$$

...NORTHERN ILLINOIS...


CITY           SKY/WX    TMP DP  RH WIND       PRES   REMARKS
CHICAGO-OHARE  CLEAR     65  53  65 S16G26    29.60F
CHICAGO-MIDWAY CLEAR     65  54  67 S13       29.62F
MOLINE         CLEAR     66  52  60 S15       29.57F
ROCKFORD       CLEAR     62  50  64 SW12      29.60R
PEORIA         CLEAR     60  55  83 S16       29.64S HAZE
$$

NOTE: "FAIR" INDICATES FEW OR NO CLOUDS BELOW 12,000 FEET WITH NO
SIGNIFICANT WEATHER AND/OR OBSTRUCTIONS TO VISIBILITY. WIND
SPEEDS ARE IN MILES-PER-HOUR.




USA.gov is the U.S. government's official web portal to all federal, state and local government web resources and services.